Location: ??
(34.9170°N, 135.5016°E)
Time: 09:38:07
(UTC+00:00)

X-37B - Pass Details

Date: 25 January 2021
Orbit: 383 x 391 km, 45.0° (Epoch: 27 February)

Event Time Altitude Azimuth Distance (km) Brightness Sun altitude
Rises 09:48:16 0° 303° (WNW) 2,274 5.2 -18.2°
Reaches altitude 10° 09:51:08 10° 331° (NNW) 1,420 3.6 -18.8°
Enters shadow 09:52:21 13° 354° (N) 1,241 3.1 -19.0°
